Retour au catalogue

KONDOR FKA 1

ActifMilitaireSSO
NORAD 56756·PAYLOAD·🇷🇺 Russia

Lancé May 26, 2023 depuis Vostochny Cosmodrome

Loading…

Prochains Passages (prochaines 24 heures)

TLE

FraisSource: Space-Track

Époque: Sep 14, 2026, 15:15 UTC

1 56756U 23074A   26257.63563692  .00002984  00000-0  14278-3 0  9995
2 56756  97.4386  90.9194 0001756  90.0066 270.1370 15.19745401183278

Suivez KONDOR FKA 1 en temps réel avec AllMySat

Download on the App Store